Location: Ełk
(53.8214°N, 22.3622°E)
Time: 08:05:17
(UTC+01:00)

ISS - Pass Details

Date: 02 February 2019
Orbit: 403 x 411 km, 51.6° (Epoch: 18 February)

Event Time Altitude Azimuth Distance (km) Brightness Sun altitude
Rises 19:42:00 0° 278° (W) 2,341 1.2 -30.7°
Reaches altitude 10° 19:44:22 10° 263° (W) 1,479 -0.2 -31.0°
Enters shadow 19:44:28 11° 262° (W) 1,445 -0.3 -31.0°
